• în România
  • Lista ţărilor
  • Pe 7 zile
  • Temperatura apei
  • Hartă satelitară
  • Meteo pe hartă
  • Widget-uri
  • user-avatar
    Intrare

    Meteo pe oră la Roman

    Astăzi, 13 Noiembrie, Marţi

    Timp Temperatura Precipitaţii Vânt Presiune Umiditate
    00:00 +6°C° 0 mm 4 m/s 757 mmHg 84%
    01:00 +6°C° 0 mm 4 m/s 757 mmHg 84%
    02:00 +5°C° 0 mm 4 m/s 757 mmHg 83%
    03:00 +5°C° 0 mm 4 m/s 757 mmHg 82%
    04:00 +5°C° 0 mm 4 m/s 757 mmHg 81%
    05:00 +5°C° 0 mm 4 m/s 757 mmHg 80%
    06:00 +4°C° 0 mm 4 m/s 757 mmHg 79%
    07:00 +4°C° 0 mm 4 m/s 757 mmHg 78%
    08:00 +4°C° 0 mm 4 m/s 757 mmHg 78%
    09:00 +4°C° 0 mm 4 m/s 757 mmHg 74%
    10:00 +5°C° 0 mm 4 m/s 757 mmHg 71%
    11:00 +5°C° 0 mm 4 m/s 757 mmHg 68%
    12:00 +6°C° 0 mm 4 m/s 757 mmHg 65%
    13:00 +7°C° 0 mm 4 m/s 756 mmHg 62%
    14:00 +7°C° 0 mm 5 m/s 756 mmHg 60%
    15:00 +6°C° 0 mm 4 m/s 756 mmHg 63%
    16:00 +5°C° 0 mm 4 m/s 755 mmHg 66%
    17:00 +5°C° 0 mm 4 m/s 755 mmHg 70%
    18:00 +4°C° 0 mm 4 m/s 755 mmHg 71%
    19:00 +4°C° 0 mm 3 m/s 755 mmHg 72%
    20:00 +3°C° 0 mm 3 m/s 755 mmHg 73%
    21:00 +3°C° 0 mm 4 m/s 755 mmHg 73%
    22:00 +3°C° 0 mm 4 m/s 755 mmHg 74%
    23:00 +1°C° 0 mm 4 m/s 755 mmHg 75%

    Mâine, 14 Noiembrie, Miercuri

    Timp Temperatura Precipitaţii Vânt Presiune Umiditate
    00:00 +1°C° 0 mm 4 m/s 754 mmHg 77%
    01:00 +1°C° 0 mm 4 m/s 754 mmHg 79%
    02:00 +1°C° 0 mm 4 m/s 754 mmHg 81%
    03:00 +1°C° 0 mm 4 m/s 753 mmHg 81%
    04:00 +1°C° 0 mm 4 m/s 753 mmHg 81%
    05:00 +2°C° 0 mm 3 m/s 752 mmHg 80%
    06:00 +3°C° 0.1 mm 3 m/s 752 mmHg 81%
    07:00 +3°C° 0.1 mm 3 m/s 752 mmHg 82%
    08:00 +4°C° 0.1 mm 2 m/s 753 mmHg 82%
    09:00 +4°C° 0.2 mm 2 m/s 753 mmHg 81%
    10:00 +5°C° 0.2 mm 2 m/s 752 mmHg 79%
    11:00 +6°C° 0.2 mm 1 m/s 752 mmHg 78%
    12:00 +7°C° 0.1 mm 1 m/s 752 mmHg 77%
    13:00 +7°C° 0.1 mm 2 m/s 752 mmHg 77%
    14:00 +8°C° 0.1 mm 2 m/s 752 mmHg 76%
    15:00 +8°C° 0.2 mm 1 m/s 752 mmHg 79%
    16:00 +8°C° 0.2 mm 1 m/s 752 mmHg 82%
    17:00 +8°C° 0.2 mm 1 m/s 752 mmHg 85%
    18:00 +7°C° 0.3 mm 1 m/s 752 mmHg 87%
    19:00 +7°C° 0.3 mm 1 m/s 752 mmHg 88%
    20:00 +6°C° 0.3 mm 2 m/s 752 mmHg 90%
    21:00 +5°C° 0.3 mm 2 m/s 752 mmHg 89%
    22:00 +5°C° 0.3 mm 2 m/s 752 mmHg 89%
    23:00 +5°C° 0.3 mm 2 m/s 752 mmHg 88%

    Poimâine, 15 Noiembrie, Joi

    Timp Temperatura Precipitaţii Vânt Presiune Umiditate
    00:00 +5°C° 0.1 mm 2 m/s 752 mmHg 89%
    01:00 +5°C° 0.1 mm 2 m/s 752 mmHg 89%
    02:00 +4°C° 0.1 mm 3 m/s 752 mmHg 89%
    03:00 +5°C° 0.2 mm 2 m/s 751 mmHg 89%
    04:00 +5°C° 0.2 mm 2 m/s 751 mmHg 89%
    05:00 +5°C° 0.2 mm 2 m/s 751 mmHg 89%
    06:00 +4°C° 1.1 mm 3 m/s 751 mmHg 89%
    07:00 +5°C° 1.1 mm 3 m/s 751 mmHg 89%
    08:00 +5°C° 1.1 mm 3 m/s 752 mmHg 90%
    09:00 +5°C° 0.9 mm 4 m/s 752 mmHg 88%
    10:00 +6°C° 0.9 mm 4 m/s 752 mmHg 87%
    11:00 +6°C° 0.9 mm 4 m/s 752 mmHg 85%
    12:00 +6°C° 0.3 mm 4 m/s 752 mmHg 84%
    13:00 +6°C° 0.3 mm 4 m/s 752 mmHg 82%
    14:00 +7°C° 0.3 mm 4 m/s 752 mmHg 81%
    15:00 +7°C° 0.2 mm 3 m/s 752 mmHg 83%
    16:00 +7°C° 0.2 mm 3 m/s 752 mmHg 84%
    17:00 +7°C° 0.2 mm 3 m/s 753 mmHg 86%
    18:00 +5°C° 0.2 mm 3 m/s 753 mmHg 87%
    19:00 +5°C° 0.2 mm 3 m/s 753 mmHg 87%
    20:00 +5°C° 0.2 mm 3 m/s 754 mmHg 88%
    21:00 +4°C° 0.2 mm 3 m/s 754 mmHg 87%
    22:00 +4°C° 0.2 mm 3 m/s 754 mmHg 85%
    23:00 +3°C° 0.2 mm 3 m/s 755 mmHg 84%

    16 Noiembrie, Vineri

    Timp Temperatura Precipitaţii Vânt Presiune Umiditate
    00:00 +3°C° 0.1 mm 3 m/s 755 mmHg 83%
    01:00 +3°C° 0.1 mm 4 m/s 755 mmHg 82%
    02:00 +3°C° 0.1 mm 4 m/s 755 mmHg 81%
    03:00 +1°C° 0 mm 4 m/s 755 mmHg 81%
    04:00 +1°C° 0 mm 4 m/s 756 mmHg 81%
    05:00 +1°C° 0 mm 4 m/s 756 mmHg 81%
    06:00 0°C° 0 mm 4 m/s 756 mmHg 82%
    07:00 0°C° 0 mm 4 m/s 757 mmHg 82%
    08:00 0°C° 0 mm 4 m/s 757 mmHg 82%
    09:00 0°C° 0 mm 4 m/s 757 mmHg 77%
    10:00 +1°C° 0 mm 5 m/s 757 mmHg 72%
    11:00 +2°C° 0 mm 5 m/s 758 mmHg 67%
    12:00 +2°C° 0 mm 5 m/s 757 mmHg 63%
    13:00 +3°C° 0 mm 5 m/s 757 mmHg 60%
    14:00 +3°C° 0 mm 5 m/s 757 mmHg 57%
    15:00 +2°C° 0 mm 5 m/s 757 mmHg 60%
    16:00 +3°C° 0 mm 4 m/s 757 mmHg 62%
    17:00 +1°C° 0 mm 4 m/s 757 mmHg 65%
    18:00 0°C° 0 mm 4 m/s 758 mmHg 67%
    19:00 0°C° 0 mm 4 m/s 758 mmHg 68%
    20:00 -1°C° 0 mm 4 m/s 758 mmHg 69%
    21:00 -1°C° 0 mm 4 m/s 758 mmHg 71%
    22:00 -1°C° 0 mm 4 m/s 758 mmHg 73%
    23:00 -2°C° 0 mm 4 m/s 759 mmHg 74%

    17 Noiembrie, Sâmbătă

    Timp Temperatura Precipitaţii Vânt Presiune Umiditate
    00:00 -2°C° 0 mm 4 m/s 759 mmHg 75%
    01:00 -2°C° 0 mm 4 m/s 759 mmHg 75%
    02:00 -2°C° 0 mm 4 m/s 759 mmHg 75%
    03:00 -2°C° 0 mm 4 m/s 759 mmHg 74%
    04:00 -2°C° 0 mm 4 m/s 759 mmHg 73%
    05:00 -2°C° 0 mm 4 m/s 759 mmHg 73%
    06:00 -2°C° 0 mm 5 m/s 759 mmHg 72%
    07:00 -2°C° 0 mm 5 m/s 759 mmHg 71%
    08:00 -2°C° 0 mm 5 m/s 759 mmHg 71%
    09:00 -1°C° 0 mm 5 m/s 759 mmHg 67%
    10:00 -1°C° 0 mm 5 m/s 759 mmHg 64%
    11:00 0°C° 0 mm 5 m/s 759 mmHg 61%
    12:00 +1°C° 0 mm 4 m/s 759 mmHg 59%
    13:00 +1°C° 0 mm 4 m/s 758 mmHg 57%
    14:00 +3°C° 0 mm 4 m/s 758 mmHg 55%
    15:00 +1°C° 0 mm 4 m/s 758 mmHg 58%
    16:00 +1°C° 0 mm 3 m/s 758 mmHg 61%
    17:00 +1°C° 0 mm 3 m/s 758 mmHg 64%
    18:00 0°C° 0 mm 3 m/s 758 mmHg 66%
    19:00 0°C° 0 mm 3 m/s 758 mmHg 67%
    20:00 -1°C° 0 mm 3 m/s 759 mmHg 69%
    21:00 -1°C° 0 mm 3 m/s 759 mmHg 70%
    22:00 -1°C° 0 mm 3 m/s 759 mmHg 71%
    23:00 -1°C° 0 mm 2 m/s 759 mmHg 72%

    18 Noiembrie, Duminică

    Timp Temperatura Precipitaţii Vânt Presiune Umiditate
    00:00 -2°C° 0 mm 2 m/s 758 mmHg 73%
    01:00 -2°C° 0 mm 2 m/s 758 mmHg 73%
    02:00 -2°C° 0 mm 2 m/s 758 mmHg 74%
    03:00 -2°C° 0 mm 2 m/s 758 mmHg 74%
    04:00 -2°C° 0 mm 2 m/s 757 mmHg 73%
    05:00 -2°C° 0 mm 2 m/s 757 mmHg 73%
    06:00 -2°C° 0 mm 2 m/s 756 mmHg 72%
    07:00 -2°C° 0 mm 2 m/s 756 mmHg 71%
    08:00 0°C° 0 mm 1 m/s 756 mmHg 70%
    09:00 +2°C° 0 mm 1 m/s 755 mmHg 63%
    10:00 +4°C° 0 mm 1 m/s 755 mmHg 55%
    11:00 +6°C° 0 mm 1 m/s 754 mmHg 48%
    12:00 +6°C° 0 mm 1 m/s 753 mmHg 46%
    13:00 +7°C° 0 mm 1 m/s 752 mmHg 44%
    14:00 +8°C° 0 mm 1 m/s 752 mmHg 42%
    15:00 +6°C° 0 mm 1 m/s 751 mmHg 47%
    16:00 +5°C° 0 mm 1 m/s 750 mmHg 51%
    17:00 +4°C° 0 mm 1 m/s 750 mmHg 56%
    18:00 +4°C° 0 mm 1 m/s 749 mmHg 58%
    19:00 +3°C° 0 mm 1 m/s 749 mmHg 59%
    20:00 +3°C° 0 mm 1 m/s 748 mmHg 61%
    21:00 +3°C° 0 mm 1 m/s 748 mmHg 62%
    22:00 +3°C° 0 mm 1 m/s 747 mmHg 63%
    23:00 +3°C° 0 mm 1 m/s 747 mmHg 64%
    Arată mai mult